DW9584 Weather Reports


time (UTC)temp
F
wind
direction
speed
knots
gust
knots
rain 1hr
in
rain 24hr
in
rain mn
in
humidity
%
barometer
mb
20260904231506 78 222 0.0 0.0 0.00 0.20 0.20 80 1011.1
20260904230006 79 222 0.0 0.0 0.00 0.20 0.20 79 1011.2
20260904224527 80 222 0.0 1.7 0.00 0.20 0.20 77 1011.4
20260904223021 81 188 0.0 1.7 0.00 0.20 0.20 74 1011.2
20260904221521 81 285 0.0 1.7 0.00 0.20 0.20 74 1011.2
20260904220024 81 231 0.0 1.7 0.00 0.20 0.20 74 1011.5
20260904214515 81 279 0.0 1.7 0.00 0.20 0.20 73 1011.6
20260904213009 82 324 0.0 3.5 0.00 0.20 0.20 70 1011.8
20260904211510 82 290 0.0 2.6 0.00 0.20 0.20 70 1011.7
20260904210006 82 77 0.0 1.7 0.00 0.20 0.20 70 1011.3
20260904204526 84 141 0.0 2.6 0.00 0.20 0.20 65 1011.3
20260904203042 84 104 0.0 3.5 0.00 0.20 0.20 65 1011.4
20260904201523 84 167 0.0 3.5 0.00 0.20 0.20 65 1011.6
20260904200020 83 281 0.0 2.6 0.00 0.20 0.20 66 1011.8
20260904194521 84 236 0.0 3.5 0.00 0.20 0.20 66 1011.9
20260904193011 85 289 0.9 3.5 0.00 0.20 0.20 63 1012.1
20260904191510 85 313 0.9 3.5 0.00 0.20 0.20 64 1012.1
20260904190037 84 118 0.9 5.2 0.00 0.20 0.20 64 1012.3
20260904184536 85 328 0.0 3.5 0.00 0.20 0.20 65 1012.6
20260904183028 85 330 1.7 4.3 0.00 0.20 0.20 64 1012.7
20260904181526 85 195 1.7 5.2 0.00 0.20 0.20 65 1012.8
20260904180022 83 313 0.0 3.5 0.00 0.20 0.20 67 1012.7
20260904174519 84 214 0.0 4.3 0.00 0.20 0.20 65 1012.7
20260904173034 84 80 0.0 2.6 0.00 0.20 0.20 67 1012.9
20260904171516 84 285 0.0 6.1 0.00 0.20 0.20 68 1012.9
20260904170014 83 158 0.0 3.5 0.00 0.20 0.20 68 1012.9
20260904164530 82 228 0.0 3.5 0.00 0.20 0.20 68 1012.9
20260904163007 82 8 0.0 4.3 0.00 0.20 0.20 70 1013.0
20260904161502 83 297 0.9 3.5 0.00 0.21 0.20 68 1013.1
20260904160003 82 338 0.0 1.7 0.00 0.21 0.20 69 1013.3
20260904154528 82 326 0.0 3.5 0.00 0.21 0.20 70 1013.1
20260904153018 81 187 0.0 2.6 0.00 0.21 0.20 73 1013.3
20260904151518 81 39 0.0 4.3 0.00 0.21 0.20 72 1013.2
20260904150025 80 236 0.9 4.3 0.00 0.21 0.20 73 1013.3
20260904144511 80 150 0.0 2.6 0.00 0.21 0.20 75 1013.1
20260904143010 79 302 0.9 6.1 0.00 0.21 0.20 75 1013.2
20260904141506 79 290 0.9 2.6 0.00 0.21 0.20 78 1013.0
20260904140004 78 268 0.0 6.1 0.00 0.21 0.20 79 1013.0
20260904134539 77 290 1.7 6.1 0.00 0.21 0.20 80 1013.0
20260904133025 76 303 0.9 4.3 0.00 0.21 0.20 82 1013.1
20260904131518 76 239 0.9 4.3 0.00 0.21 0.20 84 1013.1
20260904130018 75 269 0.9 4.3 0.00 0.21 0.20 85 1013.1
20260904124513 74 286 0.0 7.8 0.00 0.21 0.20 87 1013.2
20260904123012 73 323 0.9 5.2 0.00 0.21 0.20 90 1013.1
20260904121509 72 273 0.0 3.5 0.00 0.21 0.20 91 1013.1
20260904120030 71 338 1.7 7.0 0.00 0.21 0.20 93 1013.1
20260904114537 71 329 0.9 2.6 0.00 0.21 0.20 94 1012.9
20260904113031 70 254 0.9 3.5 0.00 0.21 0.20 95 1012.8
20260904111525 70 251 0.0 3.5 0.00 0.21 0.20 95 1012.6
20260904110020 70 248 0.0 2.6 0.00 0.22 0.20 95 1012.4
20260904104519 70 297 0.0 2.6 0.00 0.22 0.20 95 1012.2
20260904103015 70 307 0.0 1.7 0.00 0.22 0.20 95 1012.0
20260904101512 70 299 0.0 2.6 0.00 0.22 0.20 96 1012.0
20260904100031 71 292 0.0 1.7 0.00 0.24 0.20 96 1012.2
20260904094539 71 343 0.0 3.5 0.00 0.24 0.20 96 1012.2
20260904093040 72 283 0.0 4.3 0.00 0.25 0.20 96 1012.1
20260904091534 72 252 0.0 2.6 0.01 0.25 0.20 96 1012.3
20260904090025 72 245 0.0 1.7 0.01 0.26 0.20 96 1012.4
20260904084522 72 181 0.0 2.6 0.01 0.39 0.20 96 1012.5
20260904083018 72 214 0.0 1.7 0.01 0.58 0.20 96 1012.3
20260904081515 72 244 0.0 2.6 0.00 0.58 0.19 96 1012.3
20260904080012 73 191 0.0 0.0 0.00 0.58 0.19 96 1012.4
20260904074510 73 191 0.0 1.7 0.00 0.58 0.19 96 1012.4
20260904073032 73 351 0.0 0.9 0.00 0.58 0.19 96 1012.6
20260904071528 72 351 0.0 1.7 0.00 0.58 0.19 96 1012.3
20260904070025 73 351 0.0 0.0 0.00 0.58 0.19 95 1011.9
20260904064528 73 351 0.0 0.0 0.00 0.58 0.19 96 1011.8
20260904063027 73 351 0.0 0.0 0.00 0.60 0.19 95 1011.7
20260904061526 73 351 0.0 0.0 0.00 0.62 0.19 95 1011.9
20260904060015 73 351 0.0 0.9 0.00 0.74 0.19 95 1011.9
20260904054540 73 351 0.0 0.0 0.00 0.98 0.19 95 1012.2
20260904053035 73 351 0.0 0.0 0.01 0.98 0.19 95 1012.3
20260904051533 73 351 0.0 0.0 0.10 0.98 0.19 94 1012.4
20260904050040 73 351 0.0 0.0 0.19 0.98 0.19 94 1012.3
20260904044530 73 351 0.0 0.0 0.19 0.98 0.19 93 1012.3
20260904043025 74 351 0.0 1.7 0.18 0.97 0.18 92 1012.3
20260904041526 75 110 0.0 9.6 0.09 0.88 0.09 91 1013.4
20260904040036 76 287 0.0 1.7 0.00 0.79 0.00 91 1013.7
20260904034534 76 201 0.0 0.0 0.00 0.79 0.79 91 1013.0
20260904033035 76 201 0.0 0.0 0.00 0.79 0.79 91 1013.1
20260904031534 76 201 0.0 0.0 0.00 0.79 0.79 91 1013.2
20260904030030 76 201 0.0 0.0 0.00 0.79 0.79 90 1013.4
20260904024529 76 201 0.0 0.9 0.00 0.79 0.79 90 1013.5
20260904023036 76 201 0.0 0.0 0.00 0.79 0.79 90 1013.3
20260904021539 76 201 0.0 0.0 0.00 0.79 0.79 90 1013.5
20260904020034 76 201 0.0 0.0 0.00 0.79 0.79 89 1013.2
20260904014533 77 201 0.0 0.0 0.00 0.79 0.79 88 1013.5
20260904013045 77 201 0.0 1.7 0.00 0.79 0.79 88 1013.6
20260904011535 77 202 0.0 0.0 0.00 0.79 0.79 88 1013.9
20260904010009 77 202 0.0 1.7 0.00 0.79 0.79 89 1014.0
20260904004506 77 251 0.0 0.0 0.00 0.79 0.79 89 1013.8
20260904003005 78 251 0.0 0.0 0.00 0.79 0.79 88 1013.8
20260904001503 78 251 0.0 0.0 0.00 0.79 0.79 87 1013.7
20260904000003 79 251 0.0 0.0 0.00 0.79 0.79 86 1013.6
20260903234521 79 242 0.0 1.7 0.00 0.79 0.79 85 1013.5
20260903233025 80 193 0.0 0.9 0.00 0.79 0.79 84 1013.5